TOMORROW-S7

导读 | 豆包AI

TOMORROW-S7卫星是美国气候科技公司Tomorrow.io部署的卫星星座项目的组成部分,是Tomorrow微波探测系列的第七颗卫星,为该星座中的第九艘航天器。它属于6U立方星,于2025年4月22日由SpaceX猎鹰9号火箭在卡纳维拉尔角搭载发射,运行于近地轨道,配备微波传感器,可全天候获取大气温湿度廓线数据,助力提升天气预报精度与气候监测能力。

基本信息
目录编号:
63631
目录名称:
TOMORROW-S7
国际标识:
2025-081B
轨道中心:
EARTH
卫星名称:
TOMORROW-S7
卫星全名:
TOMORROW-S7
卫星状态:
在轨 (已飞行316 天)
发射日期:
2025-04-22 UTC
国别 :
(TBD)
星等 :
--
轨道信息
数据来源 国际轨道数据
星历时间: 2026-03-04T20:26:30+0800
7小时前
查看轨道信息
半长轴: 6947.577km
偏心率: 0.0000544
轨道倾角: 45.392°
近地点辐角 35.699°
升交点赤经 159.183°
平近点角 324.392°
近地点: 569.062km
远地点: 569.818km
周期: 96.053分钟
每日圈数: 14.991766
详细信息
使用方式:
暂无
2D轨道图
3D轨道图
轨道高度分析图
轨道倾角分析图
轨道综合分析图
查看轨道综合分析图